Time,TemperatureF,DewpointF,PressureIn,WindDirection,WindDirectionDegrees,WindSpeedMPH,WindSpeedGustMPH,Humidity,HourlyPrecipIn,Conditions,Clouds,dailyrainin,SoftwareType,DateUTC
2013-05-31 00:01:00,42.0,17.0,-100.00,WSW,240,2.0,4.0,36,-99.99,,,-99.99,,2013-05-31 06:01:00,
2013-05-31 00:11:00,40.0,18.0,-100.00,SW,235,6.0,8.0,40,-99.99,,,-99.99,,2013-05-31 06:11:00,
2013-05-31 00:21:00,38.0,18.0,-100.00,SW,230,4.0,9.0,43,-99.99,,,-99.99,,2013-05-31 06:21:00,
2013-05-31 00:31:00,39.0,18.0,-100.00,SW,225,1.0,7.0,43,-99.99,,,-99.99,,2013-05-31 06:31:00,
2013-05-31 00:41:00,40.0,19.0,-100.00,WSW,255,6.0,8.0,42,-99.99,,,-99.99,,2013-05-31 06:41:00,
2013-05-31 00:51:00,41.0,19.0,-100.00,WSW,255,7.0,9.0,40,-99.99,,,-99.99,,2013-05-31 06:51:00,
2013-05-31 01:01:00,42.0,19.0,-100.00,West,270,6.0,10.0,39,-99.99,,,-99.99,,2013-05-31 07:01:00,
2013-05-31 01:11:00,41.0,19.0,-100.00,WNW,285,5.0,9.0,40,-99.99,,,-99.99,,2013-05-31 07:11:00,
2013-05-31 01:21:00,41.0,19.0,-100.00,West,270,7.0,11.0,40,-99.99,,,-99.99,,2013-05-31 07:21:00,
2013-05-31 01:32:00,41.0,19.0,-100.00,West,265,8.0,12.0,40,-99.99,,,-99.99,,2013-05-31 07:32:00,
2013-05-31 01:41:00,40.0,19.0,-100.00,WNW,295,2.0,9.0,42,-99.99,,,-99.99,,2013-05-31 07:41:00,
2013-05-31 01:52:00,39.0,19.0,-100.00,WNW,300,7.0,9.0,43,-99.99,,,-99.99,,2013-05-31 07:52:00,
2013-05-31 02:01:00,39.0,19.0,-100.00,WNW,290,5.0,8.0,44,-99.99,,,-99.99,,2013-05-31 08:01:00,
2013-05-31 02:11:00,39.0,19.0,-100.00,WNW,285,6.0,9.0,45,-99.99,,,-99.99,,2013-05-31 08:11:00,
2013-05-31 02:21:00,39.0,20.0,-100.00,West,275,6.0,9.0,44,-99.99,,,-99.99,,2013-05-31 08:21:00,
2013-05-31 02:31:00,40.0,19.0,-100.00,West,275,4.0,7.0,44,-99.99,,,-99.99,,2013-05-31 08:31:00,
2013-05-31 02:41:00,40.0,19.0,-100.00,West,280,4.0,6.0,44,-99.99,,,-99.99,,2013-05-31 08:41:00,
2013-05-31 02:51:00,40.0,19.0,-100.00,West,260,3.0,6.0,42,-99.99,,,-99.99,,2013-05-31 08:51:00,
2013-05-31 03:01:00,39.0,19.0,-100.00,WNW,295,1.0,4.0,43,-99.99,,,-99.99,,2013-05-31 09:01:00,
2013-05-31 03:11:00,39.0,19.0,-100.00,WNW,295,1.0,3.0,43,-99.99,,,-99.99,,2013-05-31 09:11:00,
2013-05-31 03:21:00,39.0,18.0,-100.00,WNW,295,2.0,4.0,43,-99.99,,,-99.99,,2013-05-31 09:21:00,
2013-05-31 03:32:00,39.0,19.0,-100.00,NW,310,3.0,4.0,43,-99.99,,,-99.99,,2013-05-31 09:32:00,
2013-05-31 03:42:00,40.0,19.0,-100.00,NNW,330,5.0,6.0,42,-99.99,,,-99.99,,2013-05-31 09:42:00,
2013-05-31 03:53:00,39.0,18.0,-100.00,West,280,1.0,5.0,42,-99.99,,,-99.99,,2013-05-31 09:53:00,
2013-05-31 04:02:00,39.0,18.0,-100.00,WNW,295,3.0,4.0,43,-99.99,,,-99.99,,2013-05-31 10:02:00,
2013-05-31 04:12:00,38.0,18.0,-100.00,WNW,285,3.0,4.0,43,-99.99,,,-99.99,,2013-05-31 10:12:00,
2013-05-31 04:22:00,38.0,18.0,-100.00,WNW,300,3.0,6.0,44,-99.99,,,-99.99,,2013-05-31 10:22:00,
2013-05-31 04:32:00,38.0,18.0,-100.00,WNW,300,2.0,3.0,44,-99.99,,,-99.99,,2013-05-31 10:32:00,
2013-05-31 04:42:00,38.0,18.0,-100.00,NW,310,3.0,4.0,44,-99.99,,,-99.99,,2013-05-31 10:42:00,
2013-05-31 04:52:00,38.0,18.0,-100.00,WNW,285,4.0,7.0,44,-99.99,,,-99.99,,2013-05-31 10:52:00,
2013-05-31 05:01:00,38.0,18.0,-100.00,WNW,295,6.0,8.0,44,-99.99,,,-99.99,,2013-05-31 11:01:00,
2013-05-31 05:11:00,38.0,18.0,-100.00,WNW,300,6.0,8.0,44,-99.99,,,-99.99,,2013-05-31 11:11:00,
2013-05-31 05:22:00,38.0,18.0,-100.00,NW,305,4.0,8.0,44,-99.99,,,-99.99,,2013-05-31 11:22:00,
2013-05-31 05:32:00,38.0,18.0,-100.00,WNW,300,6.0,7.0,44,-99.99,,,-99.99,,2013-05-31 11:32:00,
2013-05-31 05:52:00,38.0,18.0,-100.00,WNW,300,6.0,7.0,44,-99.99,,,-99.99,,2013-05-31 11:52:00,
2013-05-31 06:01:00,37.0,17.0,-100.00,NW,305,4.0,7.0,44,-99.99,,,-99.99,,2013-05-31 12:01:00,
2013-05-31 06:11:00,37.0,18.0,-100.00,West,280,6.0,9.0,44,-99.99,,,-99.99,,2013-05-31 12:11:00,
2013-05-31 06:21:00,38.0,18.0,-100.00,NW,305,5.0,10.0,43,-99.99,,,-99.99,,2013-05-31 12:21:00,
2013-05-31 06:31:00,38.0,18.0,-100.00,WNW,285,4.0,7.0,43,-99.99,,,-99.99,,2013-05-31 12:31:00,
2013-05-31 06:41:00,38.0,17.0,-100.00,West,280,4.0,4.0,43,-99.99,,,-99.99,,2013-05-31 12:41:00,
2013-05-31 06:51:00,38.0,17.0,-100.00,West,280,2.0,4.0,42,-99.99,,,-99.99,,2013-05-31 12:51:00,
2013-05-31 07:01:00,39.0,18.0,-100.00,WNW,285,1.0,4.0,41,-99.99,,,-99.99,,2013-05-31 13:01:00,
2013-05-31 07:11:00,40.0,18.0,-100.00,WNW,300,1.0,4.0,41,-99.99,,,-99.99,,2013-05-31 13:11:00,
2013-05-31 07:21:00,42.0,19.0,-100.00,WNW,290,4.0,6.0,40,-99.99,,,-99.99,,2013-05-31 13:21:00,
2013-05-31 07:32:00,42.0,20.0,-100.00,NW,305,2.0,5.0,39,-99.99,,,-99.99,,2013-05-31 13:32:00,
2013-05-31 07:42:00,43.0,19.0,-100.00,NW,315,8.0,10.0,38,-99.99,,,-99.99,,2013-05-31 13:42:00,
2013-05-31 07:52:00,43.0,19.0,-100.00,NW,315,5.0,9.0,38,-99.99,,,-99.99,,2013-05-31 13:52:00,
2013-05-31 08:02:00,43.0,19.0,-100.00,NW,310,6.0,11.0,37,-99.99,,,-99.99,,2013-05-31 14:02:00,
2013-05-31 08:11:00,43.0,19.0,-100.00,NW,320,6.0,10.0,37,-99.99,,,-99.99,,2013-05-31 14:11:00,
2013-05-31 08:21:00,44.0,19.0,-100.00,NW,320,4.0,-999.0,37,-99.99,,,-99.99,,2013-05-31 14:21:00,
2013-05-31 08:31:00,44.0,20.0,-100.00,NNW,335,2.0,6.0,37,-99.99,,,-99.99,,2013-05-31 14:31:00,
2013-05-31 08:41:00,45.0,20.0,-100.00,NW,315,6.0,7.0,36,-99.99,,,-99.99,,2013-05-31 14:41:00,
2013-05-31 08:52:00,45.0,20.0,-100.00,NW,320,2.0,7.0,35,-99.99,,,-99.99,,2013-05-31 14:52:00,
2013-05-31 09:01:00,47.0,20.0,-100.00,NW,315,4.0,7.0,34,-99.99,,,-99.99,,2013-05-31 15:01:00,
2013-05-31 09:11:00,47.0,20.0,-100.00,NW,325,2.0,6.0,33,-99.99,,,-99.99,,2013-05-31 15:11:00,
2013-05-31 09:21:00,48.0,20.0,-100.00,NW,320,6.0,9.0,32,-99.99,,,-99.99,,2013-05-31 15:21:00,
2013-05-31 09:33:00,50.0,21.0,-100.00,NW,310,5.0,9.0,31,-99.99,,,-99.99,,2013-05-31 15:33:00,
2013-05-31 09:42:00,51.0,21.0,-100.00,NW,325,4.0,9.0,31,-99.99,,,-99.99,,2013-05-31 15:42:00,
2013-05-31 09:53:00,48.0,20.0,-100.00,WNW,290,6.0,11.0,31,-99.99,,,-99.99,,2013-05-31 15:53:00,
2013-05-31 10:03:00,49.0,20.0,-100.00,West,265,1.0,7.0,32,-99.99,,,-99.99,,2013-05-31 16:03:00,
2013-05-31 10:12:00,50.0,20.0,-100.00,NW,320,7.0,11.0,30,-99.99,,,-99.99,,2013-05-31 16:12:00,
2013-05-31 10:22:00,51.0,20.0,-100.00,WNW,300,7.0,12.0,29,-99.99,,,-99.99,,2013-05-31 16:22:00,
2013-05-31 10:33:00,51.0,20.0,-100.00,NW,305,6.0,11.0,28,-99.99,,,-99.99,,2013-05-31 16:33:00,
2013-05-31 10:52:00,52.0,18.0,-100.00,NW,310,7.0,-999.0,26,-99.99,,,-99.99,,2013-05-31 16:52:00,
2013-05-31 11:02:00,52.0,18.0,-100.00,NW,310,7.0,-999.0,26,-99.99,,,-99.99,,2013-05-31 17:02:00,
2013-05-31 11:12:00,53.0,20.0,-100.00,NW,320,6.0,-999.0,26,-99.99,,,-99.99,,2013-05-31 17:12:00,
2013-05-31 11:22:00,55.0,20.0,-100.00,NW,305,14.0,22.0,25,-99.99,,,-99.99,,2013-05-31 17:22:00,
2013-05-31 11:31:00,54.0,16.0,-100.00,NNW,330,19.0,27.0,21,-99.99,,,-99.99,,2013-05-31 17:31:00,
2013-05-31 11:42:00,54.0,14.0,-100.00,NW,305,20.0,27.0,20,-99.99,,,-99.99,,2013-05-31 17:42:00,
2013-05-31 11:52:00,53.0,13.0,-100.00,NW,325,19.0,26.0,19,-99.99,,,-99.99,,2013-05-31 17:52:00,
2013-05-31 12:01:00,54.0,13.0,-100.00,NW,305,18.0,24.0,18,-99.99,,,-99.99,,2013-05-31 18:01:00,
2013-05-31 12:11:00,54.0,12.0,-100.00,NNW,330,14.0,29.0,18,-99.99,,,-99.99,,2013-05-31 18:11:00,
2013-05-31 12:21:00,54.0,12.0,-100.00,NW,320,17.0,-999.0,18,-99.99,,,-99.99,,2013-05-31 18:21:00,
2013-05-31 12:31:00,54.0,11.0,-100.00,NNW,330,17.0,-999.0,18,-99.99,,,-99.99,,2013-05-31 18:31:00,
2013-05-31 12:41:00,54.0,11.0,-100.00,North,-999,-999.0,-999.0,18,-99.99,,,-99.99,,2013-05-31 18:41:00,
2013-05-31 12:52:00,55.0,13.0,-100.00,NNW,330,16.0,-999.0,18,-99.99,,,-99.99,,2013-05-31 18:52:00,
2013-05-31 13:01:00,56.0,13.0,-100.00,NNW,340,13.0,21.0,18,-99.99,,,-99.99,,2013-05-31 19:01:00,
2013-05-31 13:11:00,58.0,15.0,-100.00,NW,320,19.0,26.0,18,-99.99,,,-99.99,,2013-05-31 19:11:00,
2013-05-31 13:21:00,56.0,13.0,-100.00,NNW,330,12.0,22.0,18,-99.99,,,-99.99,,2013-05-31 19:21:00,
2013-05-31 13:31:00,58.0,15.0,-100.00,NW,315,11.0,17.0,18,-99.99,,,-99.99,,2013-05-31 19:31:00,
2013-05-31 13:41:00,55.0,13.0,-100.00,North,5,12.0,21.0,18,-99.99,,,-99.99,,2013-05-31 19:41:00,
2013-05-31 13:52:00,58.0,14.0,-100.00,NW,320,14.0,24.0,17,-99.99,,,-99.99,,2013-05-31 19:52:00,
2013-05-31 14:01:00,58.0,15.0,-100.00,NW,320,16.0,26.0,18,-99.99,,,-99.99,,2013-05-31 20:01:00,
2013-05-31 14:11:00,59.0,14.0,-100.00,WNW,285,16.0,26.0,17,-99.99,,,-99.99,,2013-05-31 20:11:00,
2013-05-31 14:22:00,58.0,14.0,-100.00,NW,315,17.0,27.0,17,-99.99,,,-99.99,,2013-05-31 20:22:00,
2013-05-31 14:31:00,58.0,15.0,-100.00,NNW,330,20.0,24.0,18,-99.99,,,-99.99,,2013-05-31 20:31:00,
2013-05-31 14:41:00,59.0,16.0,-100.00,WNW,295,17.0,27.0,18,-99.99,,,-99.99,,2013-05-31 20:41:00,
2013-05-31 14:51:00,60.0,17.0,-100.00,NW,320,17.0,24.0,18,-99.99,,,-99.99,,2013-05-31 20:51:00,
2013-05-31 15:01:00,60.0,17.0,-100.00,NW,320,16.0,28.0,18,-99.99,,,-99.99,,2013-05-31 21:01:00,
2013-05-31 15:11:00,59.0,17.0,-100.00,NNW,345,18.0,29.0,19,-99.99,,,-99.99,,2013-05-31 21:11:00,
2013-05-31 15:22:00,58.0,16.0,-100.00,NNW,345,14.0,27.0,19,-99.99,,,-99.99,,2013-05-31 21:22:00,
2013-05-31 15:32:00,58.0,17.0,-100.00,North,350,17.0,23.0,19,-99.99,,,-99.99,,2013-05-31 21:32:00,
2013-05-31 15:41:00,60.0,17.0,-100.00,NW,320,18.0,27.0,18,-99.99,,,-99.99,,2013-05-31 21:41:00,
2013-05-31 15:42:00,60.0,18.0,-100.00,NW,315,20.0,28.0,19,-99.99,,,-99.99,,2013-05-31 21:42:00,
2013-05-31 15:53:00,59.0,17.0,-100.00,NNW,330,21.0,28.0,19,-99.99,,,-99.99,,2013-05-31 21:53:00,
2013-05-31 16:02:00,60.0,17.0,-100.00,NW,320,18.0,27.0,18,-99.99,,,-99.99,,2013-05-31 22:02:00,
2013-05-31 16:12:00,60.0,17.0,-100.00,NW,320,18.0,27.0,18,-99.99,,,-99.99,,2013-05-31 22:12:00,
2013-05-31 16:22:00,60.0,17.0,-100.00,NW,320,18.0,27.0,18,-99.99,,,-99.99,,2013-05-31 22:22:00,
2013-05-31 16:33:00,60.0,17.0,-100.00,NW,320,18.0,27.0,18,-99.99,,,-99.99,,2013-05-31 22:33:00,
2013-05-31 18:01:00,55.0,17.0,-100.00,North,355,22.0,-999.0,21,-99.99,,,-99.99,,2013-06-01 00:01:00,
2013-05-31 18:11:00,54.0,17.0,-100.00,North,350,20.0,27.0,22,-99.99,,,-99.99,,2013-06-01 00:11:00,
2013-05-31 18:22:00,56.0,17.0,-100.00,NNW,335,22.0,28.0,22,-99.99,,,-99.99,,2013-06-01 00:22:00,
2013-05-31 18:31:00,55.0,17.0,-100.00,NNW,345,22.0,32.0,22,-99.99,,,-99.99,,2013-06-01 00:31:00,
2013-05-31 18:42:00,54.0,19.0,-100.00,North,355,19.0,34.0,24,-99.99,,,-99.99,,2013-06-01 00:42:00,
2013-05-31 18:51:00,54.0,20.0,-100.00,North,0,13.0,24.0,25,-99.99,,,-99.99,,2013-06-01 00:51:00,
2013-05-31 19:01:00,52.0,20.0,-100.00,North,0,16.0,30.0,27,-99.99,,,-99.99,,2013-06-01 01:01:00,
2013-05-31 19:11:00,51.0,20.0,-100.00,North,0,16.0,24.0,29,-99.99,,,-99.99,,2013-06-01 01:11:00,
2013-05-31 19:21:00,51.0,21.0,-100.00,North,0,14.0,27.0,29,-99.99,,,-99.99,,2013-06-01 01:21:00,
2013-05-31 19:31:00,50.0,22.0,-100.00,North,0,12.0,24.0,31,-99.99,,,-99.99,,2013-06-01 01:31:00,
2013-05-31 19:41:00,50.0,22.0,-100.00,NNE,25,14.0,24.0,32,-99.99,,,-99.99,,2013-06-01 01:41:00,
2013-05-31 19:52:00,50.0,22.0,-100.00,North,10,16.0,21.0,33,-99.99,,,-99.99,,2013-06-01 01:52:00,
2013-05-31 20:01:00,50.0,23.0,-100.00,North,5,14.0,21.0,34,-99.99,,,-99.99,,2013-06-01 02:01:00,
2013-05-31 20:11:00,49.0,23.0,-100.00,NNE,20,16.0,21.0,35,-99.99,,,-99.99,,2013-06-01 02:11:00,
2013-05-31 20:21:00,48.0,23.0,-100.00,NNE,15,17.0,20.0,36,-99.99,,,-99.99,,2013-06-01 02:21:00,
2013-05-31 20:31:00,48.0,23.0,-100.00,North,10,13.0,18.0,37,-99.99,,,-99.99,,2013-06-01 02:31:00,
2013-05-31 20:41:00,47.0,23.0,-100.00,NNE,15,9.0,16.0,38,-99.99,,,-99.99,,2013-06-01 02:41:00,
2013-05-31 20:51:00,47.0,23.0,-100.00,NE,35,9.0,12.0,39,-99.99,,,-99.99,,2013-06-01 02:51:00,
2013-05-31 21:01:00,46.0,24.0,-100.00,North,10,9.0,14.0,40,-99.99,,,-99.99,,2013-06-01 03:01:00,
2013-05-31 21:11:00,46.0,24.0,-100.00,North,0,11.0,15.0,40,-99.99,,,-99.99,,2013-06-01 03:11:00,
2013-05-31 21:21:00,46.0,24.0,-100.00,North,0,6.0,16.0,40,-99.99,,,-99.99,,2013-06-01 03:21:00,
2013-05-31 21:33:00,46.0,24.0,-100.00,North,0,6.0,16.0,40,-99.99,,,-99.99,,2013-06-01 03:33:00,
2013-05-31 21:43:00,46.0,24.0,-100.00,North,0,6.0,16.0,40,-99.99,,,-99.99,,2013-06-01 03:43:00,
2013-05-31 21:53:00,46.0,24.0,-100.00,North,0,6.0,16.0,40,-99.99,,,-99.99,,2013-06-01 03:53:00,
2013-05-31 22:02:00,46.0,24.0,-100.00,North,0,6.0,16.0,40,-99.99,,,-99.99,,2013-06-01 04:02:00,